Payson, AZ

1:33 PM MST on February 24, 2017 (GMT -0700)
Payson

Weather History for KPAN - April, 2014

Change the Weather History Date:

Saturday, April 5, 2014

  Actual Average Record
Temperature  
Mean Temperature 47 °F -  
Max Temperature 55 °F 68 °F 75 °F (2016)
Min Temperature 39 °F 31 °F 39 °F (2014)
Degree Days  
Heating Degree Days 18    
Moisture  
Dew Point 15 °F    
Average Humidity 27    
Maximum Humidity 43    
Minimum Humidity 15    
Precipitation  
Precipitation 0.00 in - - ()
Sea Level Pressure  
Sea Level Pressure 29.93 in    
Wind  
Wind Speed 3 mph (WNW)    
Max Wind Speed 15 mph    
Max Gust Speed 21 mph    
Visibility 10 miles    
Events      
Averages and records for this station are not official NWS values.
T = Trace of Precipitation, MM = Missing Value Source: NWS Daily Summary

Daily Weather History Graph

Daily Weather History Graph

Search for Another Location

Airport or City:

Trip Planner

Search our weather history database for the weather conditions in past years. The results will help you decide how hot, cold, wet, or windy it might be!

Date:

Astronomy

Apr. 05, 2014 Rise Set
Actual Time 6:07 AM MST 6:49 PM MST
Civil Twilight 5:41 AM MST 7:14 PM MST
Nautical Twilight 5:11 AM MST 7:44 PM MST
Astronomical Twilight 4:41 AM MST 8:15 PM MST
Moon 10:27 AM MST (4/5) No Moon Set
Length of Visible Light 13h 33m
Length of Day
12h 42m
Waxing Crescent, 35% of the Moon is Illuminated
Apr 5
Waxing Crescent
Apr 7
First Quarter
Apr 15
Full
Apr 22
Last Quarter
Apr 28
New

Hourly Weather History & Observations

Time (MST) Temp. Windchill Dew Point Humidity Pressure Visibility Wind Dir Wind Speed Gust Speed Precip Events Conditions
12:15 AM 50.0 °F - 3.2 °F 15% 29.91 in 10.0 mi West 4.6 mph - N/A   Scattered Clouds
12:35 AM 48.2 °F - 3.2 °F 16% 29.91 in 10.0 mi Calm Calm - N/A   Scattered Clouds
12:55 AM 44.6 °F - 8.6 °F 23% 29.91 in 10.0 mi Calm Calm - N/A   Partly Cloudy
1:15 AM 42.8 °F - 10.4 °F 27% 29.90 in 10.0 mi Calm Calm - N/A   Clear
1:35 AM 42.8 °F - 10.4 °F 27% 29.90 in 10.0 mi Calm Calm - N/A   Clear
1:55 AM 42.8 °F - 10.4 °F 27% 29.90 in 10.0 mi Calm Calm - N/A   Partly Cloudy
2:15 AM 41.0 °F - 12.2 °F 31% 29.89 in 10.0 mi Calm Calm - N/A   Clear
2:35 AM 41.0 °F - 12.2 °F 31% 29.89 in 10.0 mi Calm Calm - N/A   Clear
2:55 AM 41.0 °F - 10.4 °F 29% 29.88 in 10.0 mi Calm Calm - N/A   Clear
3:15 AM 41.0 °F - 10.4 °F 29% 29.87 in 10.0 mi Calm Calm - N/A   Clear
3:35 AM 39.2 °F - 10.4 °F 31% 29.87 in 10.0 mi Calm Calm - N/A   Clear
3:55 AM 39.2 °F - 10.4 °F 31% 29.86 in 10.0 mi Calm Calm - N/A   Clear
4:15 AM 41.0 °F - 8.6 °F 26% 29.86 in 10.0 mi Calm Calm - N/A   Mostly Cloudy
4:35 AM 41.0 °F - 8.6 °F 26% 29.86 in 10.0 mi Calm Calm - N/A   Overcast
4:55 AM 41.0 °F - 10.4 °F 29% 29.86 in 10.0 mi Calm Calm - N/A   Overcast
5:15 AM 39.2 °F - 10.4 °F 31% 29.87 in 10.0 mi Calm Calm - N/A   Overcast
5:35 AM 41.0 °F - 10.4 °F 29% 29.87 in 10.0 mi Calm Calm - N/A   Overcast
5:55 AM 39.2 °F - 10.4 °F 31% 29.88 in 10.0 mi Calm Calm - N/A   Overcast
6:15 AM 42.8 °F - 8.6 °F 25% 29.89 in 8.0 mi Calm Calm - N/A   Overcast
6:35 AM 41.0 °F - 8.6 °F 26% 29.89 in 10.0 mi Calm Calm - N/A   Overcast
6:55 AM 39.2 °F - 12.2 °F 33% 29.90 in 10.0 mi Calm Calm - N/A   Overcast
7:15 AM 41.0 °F - 10.4 °F 29% 29.91 in 10.0 mi Calm Calm - N/A   Mostly Cloudy
7:35 AM 42.8 °F - 12.2 °F 29% 29.92 in 10.0 mi Calm Calm - N/A   Partly Cloudy
7:55 AM 44.6 °F - 12.2 °F 27% 29.92 in 10.0 mi Calm Calm - N/A   Clear
8:15 AM 44.6 °F - 15.8 °F 31% 29.92 in 10.0 mi Calm Calm - N/A   Scattered Clouds
8:35 AM 46.4 °F - 19.4 °F 34% 29.93 in 10.0 mi Calm Calm - N/A   Scattered Clouds
8:55 AM 51.8 °F - 14.0 °F 22% 29.93 in 10.0 mi Variable 4.6 mph - N/A   Partly Cloudy
9:15 AM 51.8 °F - 8.6 °F 18% 29.93 in 10.0 mi Calm Calm - N/A   Mostly Cloudy
9:35 AM 53.6 °F - 12.2 °F 19% 29.94 in 10.0 mi Variable 6.9 mph - N/A   Scattered Clouds
9:55 AM 55.4 °F - 14.0 °F 20% 29.93 in 10.0 mi WSW 8.1 mph 13.8 mph N/A   Partly Cloudy
10:15 AM 55.4 °F - 14.0 °F 20% 29.94 in 10.0 mi SW 10.4 mph 20.7 mph N/A   Clear
10:35 AM 55.4 °F - 14.0 °F 20% 29.94 in 10.0 mi West 12.7 mph 19.6 mph N/A   Scattered Clouds
10:55 AM 53.6 °F - 14.0 °F 21% 29.94 in 10.0 mi West 9.2 mph 17.3 mph N/A   Mostly Cloudy
11:15 AM 55.4 °F - 14.0 °F 20% 29.94 in 10.0 mi Variable 5.8 mph 17.3 mph N/A   Mostly Cloudy
11:35 AM 55.4 °F - 15.8 °F 21% 29.94 in 10.0 mi West 8.1 mph 16.1 mph N/A   Partly Cloudy
11:55 AM 53.6 °F - 15.8 °F 22% 29.94 in 10.0 mi SW 9.2 mph 19.6 mph N/A   Clear
12:15 PM 53.6 °F - 15.8 °F 22% 29.94 in 10.0 mi Variable 5.8 mph 17.3 mph N/A   Mostly Cloudy
12:35 PM 55.4 °F - 17.6 °F 23% 29.93 in 10.0 mi West 11.5 mph 19.6 mph N/A   Scattered Clouds
12:55 PM 55.4 °F - 17.6 °F 23% 29.93 in 10.0 mi WNW 15.0 mph - N/A   Scattered Clouds
1:15 PM 55.4 °F - 15.8 °F 21% 29.93 in 10.0 mi West 10.4 mph - N/A   Mostly Cloudy
1:35 PM 53.6 °F - 15.8 °F 22% 29.92 in 10.0 mi Variable 3.5 mph 16.1 mph N/A   Mostly Cloudy
1:55 PM 55.4 °F - 15.8 °F 21% 29.92 in 10.0 mi West 9.2 mph 20.7 mph N/A   Mostly Cloudy
2:15 PM 55.4 °F - 17.6 °F 23% 29.91 in 10.0 mi WSW 11.5 mph 18.4 mph N/A   Scattered Clouds
2:35 PM 55.4 °F - 15.8 °F 21% 29.91 in 10.0 mi SW 10.4 mph - N/A   Partly Cloudy
2:55 PM 55.4 °F - 15.8 °F 21% 29.91 in 10.0 mi SW 8.1 mph 13.8 mph N/A   Scattered Clouds
3:15 PM 55.4 °F - 15.8 °F 21% 29.91 in 10.0 mi West 6.9 mph 13.8 mph N/A   Partly Cloudy
3:35 PM 55.4 °F - 15.8 °F 21% 29.91 in 10.0 mi Variable 5.8 mph 13.8 mph N/A   Clear
3:55 PM 55.4 °F - 15.8 °F 21% 29.91 in 10.0 mi WSW 12.7 mph - N/A   Partly Cloudy
4:15 PM 53.6 °F - 17.6 °F 24% 29.92 in 10.0 mi WNW 8.1 mph 15.0 mph N/A   Scattered Clouds
4:35 PM 53.6 °F - 17.6 °F 24% 29.92 in 10.0 mi Variable 3.5 mph 15.0 mph N/A   Partly Cloudy
4:55 PM 55.4 °F - 17.6 °F 23% 29.93 in 10.0 mi Variable 6.9 mph 13.8 mph N/A   Partly Cloudy
5:15 PM 55.4 °F - 17.6 °F 23% 29.93 in 10.0 mi West 10.4 mph - N/A   Partly Cloudy
5:35 PM 55.4 °F - 17.6 °F 23% 29.93 in 10.0 mi West 8.1 mph - N/A   Scattered Clouds
5:55 PM 55.4 °F - 17.6 °F 23% 29.94 in 10.0 mi Variable 4.6 mph 13.8 mph N/A   Partly Cloudy
6:15 PM 53.6 °F - 17.6 °F 24% 29.94 in 10.0 mi West 4.6 mph - N/A   Clear
6:35 PM 51.8 °F - 17.6 °F 26% 29.94 in 10.0 mi WSW 4.6 mph - N/A   Clear
6:55 PM 50.0 °F - 17.6 °F 28% 29.95 in 10.0 mi West 4.6 mph - N/A   Clear
7:15 PM 50.0 °F - 17.6 °F 28% 29.95 in 10.0 mi WNW 4.6 mph - N/A   Clear
7:35 PM 48.2 °F - 19.4 °F 32% 29.96 in 10.0 mi NW 4.6 mph - N/A   Mostly Cloudy
7:55 PM 48.2 °F - 19.4 °F 32% 29.97 in 10.0 mi NNW 3.5 mph - N/A   Overcast
8:15 PM 48.2 °F - 19.4 °F 32% 29.98 in 10.0 mi NW 5.8 mph - N/A   Overcast
8:35 PM 48.2 °F - 19.4 °F 32% 29.99 in 10.0 mi NNW 4.6 mph - N/A   Mostly Cloudy
8:55 PM 46.4 °F 42.9 °F 19.4 °F 34% 30.00 in 10.0 mi NNW 6.9 mph - N/A   Scattered Clouds
9:15 PM 46.4 °F 44.3 °F 21.2 °F 37% 30.00 in 10.0 mi North 4.6 mph - N/A   Mostly Cloudy
9:35 PM 46.4 °F 43.5 °F 21.2 °F 37% 30.01 in 10.0 mi North 5.8 mph - N/A   Partly Cloudy
9:55 PM 46.4 °F 43.5 °F 23.0 °F 40% 30.01 in 10.0 mi North 5.8 mph - N/A   Partly Cloudy
10:15 PM 46.4 °F 45.2 °F 21.2 °F 37% 30.01 in 10.0 mi North 3.5 mph - N/A   Partly Cloudy
10:35 PM 46.4 °F 43.5 °F 23.0 °F 40% 30.01 in 10.0 mi North 5.8 mph - N/A   Clear
10:55 PM 44.6 °F 41.4 °F 23.0 °F 43% 30.02 in 10.0 mi North 5.8 mph - N/A   Clear
11:15 PM 44.6 °F - 23.0 °F 43% 30.02 in 10.0 mi Calm Calm - N/A   Clear
11:35 PM 44.6 °F - 23.0 °F 43% 30.02 in 10.0 mi Calm Calm - N/A   Partly Cloudy
11:55 PM 44.6 °F - 23.0 °F 43% 30.02 in 10.0 mi Calm Calm - N/A   Partly Cloudy